Вернуться в каталог

COSMOS 2251 DEB

АктивенLEO
NORAD 34758·DEBRIS·🇷🇺 Russia

Запущен Jun 16, 1993 с Plesetsk Cosmodrome

Loading…

Ближайшие Пролёты (ближайшие 24 часа)

TLE

СвежийSource: Space-Track

Эпоха: Sep 14, 2026, 07:56 UTC

1 34758U 93036AAC 26257.33100601  .00000411  00000-0  36392-3 0  9996
2 34758  74.1053 215.5997 0387383 275.7685  79.9394 13.58653489866529

Отслеживайте COSMOS 2251 DEB в реальном времени с AllMySat

Download on the App Store